[[{"header":{"parameterUnit":"m.s-1","parameterCategory":1,"la1":30.2991,"la2":30.254,"lo1":-89.0895,"lo2":-89.0444,"dy":0.0017,"dx":0.0017,"nx":28,"ny":28,"refTime":"2024-03-30T09:00:00:Z","depth":0,"parameterNumber":2,"parameterNumberName":"U-component_of_WINDS"},"data":[0,0,0,0,0,0,0,0,0,0,0,0,0,0,0,0,0,0,0,0,0,0,0,0,0,0,0,0,0,0,0,0,0,0,0,0,0,0,0,0,0,0,0,0,0,0,0,0,0,0,0,0,0,0,0,0,0,0,-1.7663,-1.7664,0,-1.78,-1.7801,-1.7803,-1.7836,-1.7836,-1.7835,-1.7834,-1.798,-1.7984,-1.7989,0,0,0,0,0,0,0,0,0,0,0,0,0,-1.7436,-1.744,-1.7663,-1.7664,-1.7666,-1.7799,-1.7801,-1.7803,-1.7837,-1.7835,-1.7834,-1.7833,-1.7978,-1.7984,-1.7989,0,0,0,0,0,0,0,0,0,0,0,0,0,-1.755,-1.7441,-1.7662,-1.7699,-1.7703,-1.7799,-1.7801,-1.7804,-1.7837,-1.7835,-1.7834,-1.7833,-1.7976,-1.7983,-1.799,-1.8061,0,0,-1.8012,-1.8015,0,0,0,0,0,0,0,0,-1.7544,-1.7558,-1.7692,-1.7696,-1.7702,-1.7799,-1.7775,-1.789,-1.7837,-1.7786,-1.7834,-1.7832,-1.7921,-1.7933,-1.7962,-1.8068,-1.8074,-1.8012,-1.8017,-1.802,-1.8022,0,0,0,0,0,0,0,-1.7536,-1.7553,-1.7717,-1.7694,-1.77,-1.771,-1.7725,-1.7797,-1.786,-1.7791,-1.7793,-1.7809,-1.7924,-1.7955,-1.7965,-1.8076,-1.8012,-1.8018,-1.8023,-1.8026,-1.8249,-1.8251,0,0,0,0,0,0,-1.7521,-1.7546,-1.7713,-1.7721,-1.7617,-1.7715,-1.7732,-1.777,-1.7859,-1.7871,-1.781,-1.781,-1.7943,-1.7957,-1.797,-1.806,-1.802,-1.8026,-1.803,-1.8248,-1.825,-1.8252,0,0,0,0,0,0,-1.7516,-1.7535,-1.7707,-1.7634,-1.7657,-1.7721,-1.7763,-1.7773,-1.7804,-1.7874,-1.7886,-1.7829,-1.7943,-1.796,-1.8038,-1.8065,-1.8029,-1.8036,-1.8246,-1.8248,-1.8251,-1.8238,0,0,0,0,0,0,-1.7509,-1.7533,-1.7559,-1.7635,-1.7661,-1.7771,-1.7765,-1.7777,-1.7815,-1.7817,-1.7895,-1.7907,-1.7943,-1.8027,-1.8045,-1.8074,-1.8041,-1.8244,-1.8247,-1.825,-1.8236,-1.824,-1.8243,0,0,0,0,0,-1.7501,-1.7551,-1.756,-1.758,-1.7694,-1.7772,-1.7787,-1.7826,-1.7817,-1.7845,-1.789,-1.7904,-1.806,-1.8035,-1.8055,-1.8087,-1.8242,-1.8246,-1.825,-1.8235,-1.8239,-1.8243,0,0,0,0,0,0,-1.7479,-1.7562,-1.7573,-1.7649,-1.7703,-1.7777,-1.7813,-1.7829,-1.7888,-1.7887,-1.7935,-1.7952,-1.8027,-1.8065,-1.8036,-1.8161,-1.8151,-1.8159,-1.8133,-1.8138,-1.8141,-1.813,-1.8047,0,0,0,0,0,-1.7483,-1.7537,-1.7608,-1.7668,-1.7695,-1.7749,-1.7785,-1.781,-1.7869,-1.7892,-1.7943,-1.8001,-1.8063,-1.8103,-1.8164,-1.8243,-1.8261,-1.8275,-1.8278,-1.828,-1.8287,-1.8332,-1.8339,-1.8264,-1.8264,-1.8264,0,0,-1.7492,-1.7544,-1.7576,-1.7665,-1.771,-1.7767,-1.7768,-1.7828,-1.7872,-1.7902,-1.7977,-1.8017,-1.8085,-1.8164,-1.8201,-1.8198,-1.8312,-1.8285,-1.8287,-1.8292,-1.8337,-1.8344,-1.835,-1.8267,-1.8266,-1.8266,0,0,-1.7537,-1.7582,-1.7637,-1.7681,-1.7749,-1.7785,-1.7798,-1.7871,-1.7898,-1.7974,-1.7998,-1.8052,-1.8157,-1.8205,-1.8243,-1.8307,-1.8323,-1.8326,-1.8343,-1.8386,-1.8392,-1.8398,-1.8421,-1.8428,-1.8332,-1.8332,-1.8332,0,-1.754,-1.7624,-1.7664,-1.7722,-1.7761,-1.779,-1.7847,-1.789,-1.7974,-1.8002,-1.7997,-1.813,-1.8178,-1.8268,-1.8284,-1.8314,-1.8332,-1.8317,-1.8388,-1.8394,-1.84,-1.8422,-1.843,-1.8332,-1.8332,-1.8332,-1.8332,0,-1.7625,-1.7683,-1.772,-1.7799,-1.7843,-1.7901,-1.795,-1.799,-1.8012,-1.805,-1.8128,-1.8187,-1.826,-1.8284,-1.8307,-1.8378,-1.8374,-1.8378,-1.8369,-1.8406,-1.8428,-1.8436,-1.8332,-1.8332,-1.8332,-1.8332,0,0,-1.7659,-1.7758,-1.7771,-1.7808,-1.7885,-1.7932,-1.7992,-1.8062,-1.8095,-1.8154,-1.8206,-1.8295,-1.8299,-1.8342,-1.8371,-1.8409,-1.8457,-1.8409,-1.8412,-1.8415,-1.854,-1.8535,-1.8544,-1.8468,-1.847,-1.8471,-1.8534,0,-1.7713,-1.7818,-1.7855,-1.7943,-1.7998,-1.8027,-1.808,-1.8134,-1.8171,-1.8225,-1.8267,-1.8329,-1.833,-1.8357,-1.8396,-1.8442,-1.8482,-1.8439,-1.8518,-1.8521,-1.8499,-1.8556,-1.8551,-1.8607,-1.8542,-1.8544,-1.8545,0,-1.7789,-1.7846,-1.7938,-1.8009,-1.8033,-1.8079,-1.8147,-1.8198,-1.8261,-1.8285,-1.8334,-1.836,-1.8426,-1.8413,-1.8506,-1.8475,-1.8511,-1.8539,-1.8542,-1.855,-1.8534,-1.8565,-1.8625,-1.8633,-1.8559,-1.8558,-1.8557,0,-1.7803,-1.7904,-1.7972,-1.8002,-1.8086,-1.8118,-1.8155,-1.8217,-1.8256,-1.8317,-1.8343,-1.8411,-1.8448,-1.8501,-1.8546,-1.8532,-1.8634,-1.8625,-1.8657,-1.8656,-1.8676,-1.8674,-1.8743,-1.8701,-1.8701,-1.87,-1.87,0,-1.7859,-1.7914,-1.7979,-1.8021,-1.8085,-1.8129,-1.8191,-1.8231,-1.8285,-1.8337,-1.8368,-1.8416,-1.8472,-1.8528,-1.8564,-1.8635,-1.8652,-1.8675,-1.8684,-1.8672,-1.8669,-1.8694,-1.8691,-1.8703,-1.8702,-1.8702,-1.8701,0,-1.7885,-1.7931,-1.8007,-1.808,-1.81,-1.8144,-1.8208,-1.8251,-1.8289,-1.8354,-1.8372,-1.8434,-1.8502,-1.8552,-1.864,-1.8664,-1.874,-1.875,-1.8718,-1.8722,-1.8751,-1.8747,-1.8838,-1.8852,-1.8801,-1.8801,-1.8802,0,-1.7917,-1.796,-1.8037,-1.8073,-1.8109,-1.8166,-1.8207,-1.8253,-1.8294,-1.837,-1.8404,-1.8473,-1.8531,-1.8639,-1.8693,-1.8761,-1.8772,-1.8799,-1.8782,-1.8769,-1.8772,-1.8768,-1.8773,-1.8801,-1.8801,-1.8801,-1.8802,0,-1.7968,-1.7989,-1.8044,-1.8109,-1.8156,-1.8209,-1.8263,-1.8291,-1.8348,-1.8393,-1.8461,-1.8506,-1.8596,-1.8665,-1.8739,-1.8779,-1.88,-1.8807,-1.8818,-1.8805,-1.8784,-1.8795,-1.8723,-1.8804,-1.8804,-1.8804,-1.8803,-1.8803,-1.7998,-1.8037,-1.8098,-1.8159,-1.8205,-1.8255,-1.8298,-1.8342,-1.8399,-1.8474,-1.8499,-1.857,-1.8634,-1.8734,-1.8776,-1.8834,-1.8834,-1.8849,-1.8853,-1.8856,-1.8855,-1.8776,-1.8848,-1.8848,-1.8848,-1.8848,-1.8848,0,-1.805,-1.809,-1.8147,-1.822,-1.8269,-1.8283,-1.8344,-1.8385,-1.8446,-1.8503,-1.8559,-1.8638,-1.8706,-1.8765,-1.8836,-1.8871,-1.8882,-1.8888,-1.8885,-1.8894,-1.8852,-1.8835,-1.8877,-1.8877,-1.8877,-1.8877,-1.8877,-1.8877,-1.8083,-1.815,-1.8178,-1.8269,-1.831,-1.8378,-1.8412,-1.8459,-1.8504,-1.859,-1.8646,-1.8683,-1.8742,-1.8817,-1.888,-1.8897,-1.8921,-1.8924,-1.8942,-1.8901,-1.8897,-1.8894,-1.8878,-1.8929,-1.8929,-1.898,-1.898,-1.8981]},{"header":{"parameterUnit":"m.s-1","parameterCategory":1,"la1":30.2991,"la2":30.254,"lo1":-89.0895,"lo2":-89.0444,"dy":0.0017,"dx":0.0017,"nx":28,"ny":28,"refTime":"2024-03-30T09:00:00:Z","depth":0,"parameterNumber":3,"parameterNumberName":"V-component_of_WINDS"},"data":[0,0,0,0,0,0,0,0,0,0,0,0,0,0,0,0,0,0,0,0,0,0,0,0,0,0,0,0,0,0,0,0,0,0,0,0,0,0,0,0,0,0,0,0,0,0,0,0,0,0,0,0,0,0,0,0,0,0,1.651,1.651,0,1.6534,1.6534,1.6534,1.6572,1.6573,1.6573,1.6574,1.6597,1.6597,1.6597,0,0,0,0,0,0,0,0,0,0,0,0,0,1.6495,1.6495,1.6509,1.651,1.651,1.6534,1.6534,1.6534,1.6572,1.6573,1.6573,1.6574,1.6597,1.6597,1.6597,0,0,0,0,0,0,0,0,0,0,0,0,0,1.6508,1.6495,1.6509,1.6532,1.6534,1.6534,1.6534,1.6534,1.6572,1.6573,1.6574,1.6575,1.6597,1.6597,1.6597,1.6576,0,0,1.6596,1.6596,0,0,0,0,0,0,0,0,1.6507,1.6509,1.6528,1.653,1.6533,1.6551,1.6537,1.6548,1.6571,1.6557,1.6574,1.6575,1.658,1.6582,1.6584,1.6577,1.6578,1.6596,1.6596,1.6596,1.6596,0,0,0,0,0,0,0,1.6506,1.6508,1.6519,1.6528,1.6531,1.654,1.6543,1.6539,1.6563,1.6559,1.6561,1.6564,1.6582,1.6584,1.6585,1.6578,1.6596,1.6596,1.6596,1.6596,1.6557,1.6556,0,0,0,0,0,0,1.6502,1.6507,1.6518,1.652,1.6522,1.654,1.6543,1.6544,1.6563,1.6567,1.6563,1.6565,1.6584,1.6585,1.6586,1.6564,1.6596,1.6596,1.6596,1.6558,1.6557,1.6556,0,0,0,0,0,0,1.6502,1.6503,1.6517,1.6514,1.6517,1.6539,1.654,1.6544,1.6546,1.6566,1.657,1.6561,1.6584,1.6586,1.6579,1.6565,1.6596,1.6596,1.6559,1.6558,1.6556,1.6519,0,0,0,0,0,0,1.6501,1.6503,1.6495,1.6514,1.6517,1.651,1.6539,1.6544,1.6546,1.655,1.6565,1.6569,1.6585,1.6578,1.6579,1.6566,1.6596,1.6561,1.6559,1.6557,1.6522,1.6517,1.6513,0,0,0,0,0,1.6501,1.6483,1.6494,1.6496,1.6508,1.6509,1.6511,1.653,1.6545,1.6538,1.6551,1.6569,1.6567,1.6577,1.6578,1.6565,1.6561,1.6559,1.6557,1.6524,1.6518,1.6513,0,0,0,0,0,0,1.6461,1.6486,1.6499,1.6487,1.6496,1.6515,1.6507,1.6523,1.6527,1.653,1.6554,1.6557,1.6547,1.6555,1.6567,1.6547,1.6567,1.6565,1.6542,1.6536,1.6531,1.653,1.6596,0,0,0,0,0,1.6451,1.6451,1.6472,1.6459,1.6463,1.6484,1.6485,1.65,1.651,1.6513,1.6526,1.6534,1.6536,1.6536,1.6539,1.6523,1.6528,1.6515,1.651,1.6506,1.6504,1.6497,1.6492,1.6548,1.6548,1.6548,0,0,1.643,1.6444,1.6442,1.6452,1.646,1.6459,1.6487,1.6484,1.6483,1.6513,1.6507,1.6517,1.6528,1.6517,1.6512,1.6523,1.6489,1.6503,1.65,1.65,1.6495,1.6489,1.6484,1.6547,1.6547,1.6547,0,0,1.6392,1.6402,1.6393,1.6402,1.6415,1.6429,1.6427,1.6444,1.6452,1.6447,1.647,1.6469,1.6471,1.6478,1.6482,1.6448,1.6465,1.6448,1.6423,1.6417,1.6412,1.6409,1.6397,1.6393,1.6446,1.6445,1.6445,0,1.6365,1.6364,1.6386,1.6383,1.6387,1.6414,1.6406,1.6413,1.6425,1.6427,1.6439,1.6443,1.6452,1.6444,1.6436,1.6438,1.6437,1.6446,1.6411,1.6408,1.6405,1.6394,1.639,1.6443,1.6444,1.6444,1.6444,0,1.633,1.6329,1.6321,1.6334,1.6337,1.633,1.6352,1.6352,1.6366,1.6379,1.6374,1.6387,1.6393,1.6392,1.6405,1.6385,1.6392,1.6407,1.6428,1.6397,1.6388,1.6384,1.644,1.6441,1.6442,1.6442,0,0,1.6267,1.6294,1.629,1.6297,1.6314,1.6314,1.6309,1.6316,1.6316,1.6324,1.6321,1.6323,1.6337,1.6342,1.6356,1.6351,1.6324,1.6367,1.6368,1.6359,1.6305,1.6294,1.6289,1.6335,1.6335,1.6334,1.6304,0,1.6233,1.6227,1.6248,1.6237,1.6237,1.6263,1.6259,1.6269,1.6281,1.6283,1.6296,1.6297,1.6316,1.6319,1.6315,1.6328,1.6314,1.6331,1.6333,1.6333,1.633,1.6284,1.6272,1.6243,1.63,1.63,1.6299,0,1.6193,1.62,1.6189,1.6208,1.6209,1.6205,1.6213,1.6215,1.6226,1.6236,1.6241,1.6259,1.6256,1.6276,1.6272,1.6283,1.6285,1.6292,1.6291,1.6293,1.6315,1.6284,1.6234,1.623,1.6294,1.6294,1.6294,0,1.6149,1.6156,1.6151,1.6156,1.6177,1.6174,1.6183,1.6196,1.6199,1.6206,1.6209,1.6215,1.6219,1.6223,1.6242,1.6255,1.6236,1.6257,1.6244,1.6244,1.624,1.624,1.6189,1.6239,1.6239,1.624,1.624,0,1.6109,1.6102,1.6132,1.6129,1.6122,1.6145,1.6137,1.6148,1.616,1.6159,1.6182,1.6181,1.6206,1.6208,1.6222,1.6217,1.6218,1.6226,1.623,1.6225,1.6224,1.6227,1.623,1.6238,1.6239,1.6239,1.6239,0,1.606,1.608,1.6076,1.6097,1.6103,1.6096,1.6114,1.6112,1.6126,1.6125,1.6126,1.6148,1.6151,1.6171,1.6178,1.6188,1.6178,1.6186,1.6175,1.6177,1.6164,1.6165,1.6114,1.6109,1.6161,1.6161,1.616,0,1.6034,1.6029,1.605,1.6052,1.606,1.6062,1.6066,1.6089,1.6092,1.6106,1.6102,1.6107,1.6113,1.6117,1.6133,1.614,1.6148,1.613,1.6149,1.6144,1.6149,1.615,1.615,1.6126,1.6125,1.6124,1.6124,0,1.5985,1.5996,1.6001,1.6009,1.6014,1.6021,1.603,1.603,1.6055,1.6058,1.6062,1.6066,1.6075,1.608,1.6089,1.6098,1.6115,1.6118,1.6115,1.611,1.6104,1.6108,1.6164,1.6119,1.6119,1.612,1.612,1.612,1.5948,1.5945,1.596,1.5965,1.5974,1.5982,1.5982,1.5996,1.6001,1.601,1.6023,1.6026,1.6039,1.6053,1.606,1.6063,1.6073,1.6069,1.6068,1.6067,1.6064,1.6103,1.6064,1.6064,1.6065,1.6065,1.6065,0,1.5901,1.5913,1.5917,1.593,1.5934,1.595,1.5961,1.5964,1.5966,1.5977,1.5982,1.5988,1.5993,1.601,1.6018,1.6016,1.6025,1.6018,1.6018,1.602,1.6054,1.6056,1.6011,1.6011,1.6011,1.6011,1.6011,1.6011,1.5878,1.5875,1.5887,1.5889,1.59,1.5904,1.5909,1.5917,1.5926,1.5931,1.5936,1.5948,1.5961,1.597,1.5976,1.5981,1.5983,1.5973,1.5981,1.6012,1.6018,1.6023,1.6025,1.5973,1.5973,1.5947,1.5946,1.5946]}]]